Location: Aldenham
(51.6667°N, 0.3500°W)
Time: 23:45:26
(UTC+00:00)

Cosmos 2034 Rocket - Visible Passes

Search period start: 15 February 2026 00:00
Search period end: 25 February 2026 00:00
Orbit: 956 x 1001 km, 82.9° (Epoch: 15 February)

Date Brightness Start Highest point End Pass type
(mag) Time Alt. Az. Time Alt. Az. Time Alt. Az.
15 Feb 4.2 18:35:09 10° N 18:41:07 48° ENE 18:47:05 10° SSE visible
15 Feb 5.4 20:20:54 10° NNW 20:26:25 35° W 20:31:56 10° SSW visible
16 Feb 6.8 06:29:56 10° ESE 06:32:58 14° ENE 06:35:59 10° NE visible
16 Feb 3.9 19:01:20 10° N 19:07:32 79° E 19:13:45 10° SSE visible
16 Feb 6.2 20:47:49 10° NNW 20:52:18 21° W 20:56:46 10° SW visible
17 Feb 4.8 17:42:35 10° N 17:47:49 28° ENE 17:53:02 10° ESE visible
17 Feb 4.4 19:27:39 10° NNW 19:33:46 64° W 19:39:55 10° S visible
17 Feb 6.8 21:15:39 10° NW 21:17:59 12° WNW 21:20:19 10° W visible
18 Feb 4.3 18:08:33 10° N 18:14:27 44° ENE 18:20:22 10° SE visible
18 Feb 5.3 19:54:11 10° NNW 19:59:51 39° W 20:05:31 10° SSW visible
19 Feb 7.0 06:03:56 10° E 06:06:27 13° ENE 06:08:58 10° NE visible
19 Feb 3.9 18:34:41 10° N 18:40:54 72° ENE 18:47:07 10° SSE visible
19 Feb 6.2 20:21:02 10° NNW 20:25:45 23° W 20:30:29 10° SW visible
20 Feb 6.6 06:27:38 10° SE 06:32:10 22° E 06:36:41 10° NNE visible
20 Feb 4.3 19:01:00 10° NNW 19:07:10 71° W 19:13:21 10° S visible
20 Feb 6.9 20:48:33 10° NW 20:51:29 14° WNW 20:54:25 10° WSW visible
21 Feb 5.2 19:27:30 10° NNW 19:33:16 42° W 19:39:05 10° SSW visible
22 Feb 7.2 05:38:08 10° E 05:39:57 11° ENE 05:41:45 10° NE visible
22 Feb 4.0 18:08:04 10° N 18:14:16 66° ENE 18:20:28 10° SSE visible
22 Feb 6.1 19:54:16 10° NNW 19:59:12 26° W 20:04:10 10° SW visible
23 Feb 6.8 06:01:21 10° ESE 06:05:37 20° E 06:09:54 10° NE visible
23 Feb 4.2 18:34:20 10° NNW 18:40:34 77° W 18:46:48 10° S visible
23 Feb 6.9 20:21:35 10° NW 20:24:58 15° WNW 20:28:22 10° WSW visible
24 Feb 5.1 19:00:49 10° NNW 19:06:42 47° W 19:12:37 10° SSW visible
